Weather History for Roseau, MN

Change the Weather History Date:

Saturday, January 5, 2013

  Actual Average Record
Temperature  
Mean Temperature 6 °F -  
Max Temperature 19 °F 9 °F 48 °F (2012)
Min Temperature -7 °F -7 °F -36 °F (2005)
Degree Days  
Heating Degree Days 59    
Moisture  
Dew Point -1 °F    
Average Humidity 76    
Maximum Humidity 85    
Minimum Humidity 63    
Precipitation  
Precipitation 0.00 in - - ()
Sea Level Pressure  
Sea Level Pressure 30.00 in    
Wind  
Wind Speed 2 mph (NW)    
Max Wind Speed 12 mph    
Max Gust Speed 9 mph    
Visibility 9 miles    
Events Snow    
Averages and records for this station are not official NWS values.
T = Trace of Precipitation, MM = Missing Value Source: NWS Daily Summary

Daily Weather History Graph

Daily Weather History Graph

Search for Another Location

Airport:

Trip Planner

Search our weather history database for the weather conditions in past years. The results will help you decide how hot, cold, wet, or windy it might be!

Date:

Astronomy

Jan. 05, 2013 Rise Set
Actual Time 8:15 AM CST 4:41 PM CST
Civil Twilight 7:38 AM CST 5:18 PM CST
Nautical Twilight 6:58 AM CST 5:58 PM CST
Astronomical Twilight 6:20 AM CST 6:36 PM CST
Moon 1:05 AM CST (1/5) 11:47 AM CST (1/5)
Length of Visible Light 9h 39m
Length of Day
8h 25m
Last Quarter, 44% of the Moon is Illuminated
Jan 5
Last Quarter
Jan 11
New
Jan 18
First Quarter
Jan 26
Full
Feb 3
Last Quarter

Hourly Weather History & Observations

Time (CST) Temp. Windchill Dew Point Humidity Pressure Visibility Wind Dir Wind Speed Gust Speed Precip Events Conditions
12:14 AM -4.0 °F - -9.4 °F 78% 30.04 in 0.5 mi Calm Calm - N/A   Haze
12:34 AM -0.4 °F - -5.8 °F 78% 30.03 in 0.2 mi Calm Calm - N/A   Haze
12:54 AM -2.2 °F - -7.6 °F 78% 30.03 in 0.5 mi Calm Calm - N/A   Haze
1:14 AM -2.2 °F - -7.6 °F 78% 30.02 in 1.0 mi Calm Calm - N/A   Haze
1:34 AM -0.4 °F - -7.6 °F 72% 30.02 in 0.2 mi Calm Calm - N/A   Haze
1:54 AM -5.8 °F - -11.2 °F 77% 30.02 in 5.0 mi Calm Calm - N/A   Haze
2:14 AM -7.6 °F - -13.0 °F 77% 30.02 in 0.8 mi Calm Calm - N/A   Haze
2:34 AM -7.6 °F - -14.8 °F 71% 30.02 in 0.5 mi Calm Calm - N/A   Haze
2:54 AM -2.2 °F - -7.6 °F 78% 30.01 in 10.0 mi Calm Calm - N/A   Scattered Clouds
3:14 AM -5.8 °F - -11.2 °F 77% 30.02 in 10.0 mi Calm Calm - N/A   Clear
3:34 AM -2.2 °F - -9.4 °F 71% 30.01 in 10.0 mi Calm Calm - N/A   Clear
3:54 AM -5.8 °F - -11.2 °F 77% 30.00 in 10.0 mi Calm Calm - N/A   Clear
4:14 AM -5.8 °F - -9.4 °F 84% 30.00 in 10.0 mi Calm Calm - N/A   Clear
4:34 AM -7.6 °F - -13.0 °F 77% 29.99 in 10.0 mi Calm Calm - N/A   Clear
4:54 AM -5.8 °F - -11.2 °F 77% 29.98 in 10.0 mi Calm Calm - N/A   Clear
5:14 AM -7.6 °F - -14.8 °F 71% 29.98 in 10.0 mi Calm Calm - N/A   Clear
5:34 AM -2.2 °F - -7.6 °F 78% 29.98 in 10.0 mi Calm Calm - N/A   Clear
5:54 AM -4.0 °F - -9.4 °F 78% 29.97 in 10.0 mi Calm Calm - N/A   Clear
6:14 AM -5.8 °F - -11.2 °F 77% 29.97 in 10.0 mi Calm Calm - N/A   Clear
6:34 AM -5.8 °F - -9.4 °F 84% 29.97 in 10.0 mi Calm Calm - N/A   Clear
6:54 AM -4.0 °F - -9.4 °F 78% 29.96 in 10.0 mi Calm Calm - N/A   Clear
7:14 AM -2.2 °F - -7.6 °F 78% 29.97 in 10.0 mi Calm Calm - N/A   Clear
7:34 AM -0.4 °F - -5.8 °F 78% 29.97 in 10.0 mi Calm Calm - N/A   Clear
7:54 AM 1.4 °F - -2.2 °F 85% 29.98 in 10.0 mi Calm Calm - N/A   Clear
8:14 AM 3.2 °F -4.2 °F -0.4 °F 85% 29.97 in 10.0 mi NE 3.5 mph - N/A   Mostly Cloudy
8:34 AM 3.2 °F -4.2 °F -0.4 °F 85% 29.99 in 10.0 mi North 3.5 mph - N/A   Mostly Cloudy
8:54 AM 3.2 °F - -0.4 °F 85% 29.99 in 10.0 mi Calm Calm - N/A   Mostly Cloudy
9:14 AM 3.2 °F - -0.4 °F 85% 29.98 in 10.0 mi Calm Calm - N/A   Overcast
9:54 AM 6.8 °F -0.1 °F 1.4 °F 79% 29.99 in 10.0 mi NNE 3.5 mph - N/A   Mostly Cloudy
10:14 AM 6.8 °F - 1.4 °F 79% 29.98 in 10.0 mi Calm Calm - N/A   Mostly Cloudy
10:54 AM 8.6 °F - 3.2 °F 79% 29.99 in 10.0 mi Calm Calm - N/A   Overcast
11:14 AM 10.4 °F - 3.2 °F 73% 30.00 in 10.0 mi Calm Calm - N/A Snow Light Snow
11:34 AM 10.4 °F - 6.8 °F 85% 29.99 in 10.0 mi Calm Calm - N/A   Scattered Clouds
11:54 AM 10.4 °F - 6.8 °F 85% 29.98 in 10.0 mi Calm Calm - N/A   Scattered Clouds
12:14 PM 12.2 °F 6.1 °F 8.6 °F 85% 29.98 in 10.0 mi North 3.5 mph - N/A   Scattered Clouds
12:34 PM 15.8 °F 8.6 °F 10.4 °F 79% 29.97 in 7.0 mi NNW 4.6 mph - N/A   Scattered Clouds
12:54 PM 17.6 °F 12.3 °F 12.2 °F 79% 29.96 in 10.0 mi North 3.5 mph - N/A   Clear
1:14 PM 17.6 °F 10.7 °F 12.2 °F 79% 29.96 in 10.0 mi NNW 4.6 mph - N/A   Scattered Clouds
1:34 PM 19.4 °F 11.5 °F 14.0 °F 80% 29.95 in 10.0 mi NNW 5.8 mph 9.2 mph N/A   Scattered Clouds
1:54 PM 19.4 °F 11.5 °F 14.0 °F 80% 29.95 in 10.0 mi NNE 5.8 mph - N/A   Scattered Clouds
2:14 PM 19.4 °F 11.5 °F 12.2 °F 74% 29.96 in 10.0 mi North 5.8 mph - N/A   Scattered Clouds
2:34 PM 19.4 °F 10.4 °F 8.6 °F 63% 29.96 in 10.0 mi North 6.9 mph - N/A   Scattered Clouds
2:54 PM 17.6 °F 8.2 °F 8.6 °F 68% 29.97 in 10.0 mi North 6.9 mph - N/A   Clear
3:14 PM 17.6 °F 9.3 °F 8.6 °F 68% 29.97 in 10.0 mi North 5.8 mph - N/A   Clear
3:34 PM 15.8 °F 5.1 °F 6.8 °F 68% 29.98 in 10.0 mi NNW 8.1 mph - N/A   Clear
3:54 PM 17.6 °F 9.3 °F 8.6 °F 68% 29.98 in 10.0 mi NNW 5.8 mph - N/A   Clear
4:14 PM 15.8 °F 6.1 °F 6.8 °F 68% 29.99 in 10.0 mi NNW 6.9 mph - N/A   Scattered Clouds
4:54 PM 12.2 °F 1.7 °F 6.8 °F 79% 30.00 in 10.0 mi West 6.9 mph - N/A   Clear
5:14 PM 12.2 °F 4.3 °F 5.0 °F 73% 29.99 in 10.0 mi West 4.6 mph - N/A   Clear
5:34 PM 12.2 °F 2.9 °F 5.0 °F 73% 29.99 in 10.0 mi West 5.8 mph - N/A   Clear
5:54 PM 10.4 °F -3.3 °F 3.2 °F 73% 30.01 in 10.0 mi West 10.4 mph - N/A   Clear
6:14 PM 8.6 °F -6.3 °F 1.4 °F 73% 30.03 in 10.0 mi West 11.5 mph - N/A   Clear
6:34 PM 8.6 °F -2.6 °F 1.4 °F 73% 30.03 in 10.0 mi WNW 6.9 mph - N/A   Clear
6:54 PM 8.6 °F -5.5 °F 1.4 °F 73% 30.03 in 10.0 mi West 10.4 mph - N/A   Clear
7:14 PM 6.8 °F -7.8 °F -0.4 °F 72% 30.03 in 10.0 mi West 10.4 mph - N/A   Clear
7:54 PM 6.8 °F -4.8 °F -0.4 °F 72% 30.03 in 10.0 mi West 6.9 mph - N/A   Clear
8:14 PM 5.0 °F -8.1 °F -2.2 °F 72% 30.03 in 10.0 mi West 8.1 mph - N/A   Clear
8:34 PM 3.2 °F -12.2 °F -2.2 °F 78% 30.04 in 10.0 mi West 10.4 mph - N/A   Clear
8:54 PM 3.2 °F -10.3 °F -2.2 °F 78% 30.05 in 10.0 mi West 8.1 mph - N/A   Clear
9:14 PM 5.0 °F -2.1 °F -2.2 °F 72% 30.04 in 10.0 mi WNW 3.5 mph - N/A   Scattered Clouds
9:34 PM 6.8 °F -3.5 °F -0.4 °F 72% 30.04 in 10.0 mi West 5.8 mph - N/A   Overcast
9:55 PM 6.8 °F -2.0 °F -0.4 °F 72% 30.03 in 10.0 mi West 4.6 mph - N/A   Overcast
10:14 PM 6.8 °F -2.0 °F -0.4 °F 72% 30.04 in 10.0 mi West 4.6 mph - N/A   Mostly Cloudy
10:34 PM 6.8 °F -0.1 °F -0.4 °F 72% 30.04 in 10.0 mi West 3.5 mph - N/A   Mostly Cloudy
10:54 PM 8.6 °F - -0.4 °F 67% 30.04 in 10.0 mi Calm Calm - N/A   Overcast
11:14 PM 6.8 °F - 1.4 °F 79% 30.04 in 10.0 mi Calm Calm - N/A   Overcast
11:34 PM 6.8 °F - -0.4 °F 72% 30.05 in 10.0 mi Calm Calm - N/A   Overcast
11:55 PM 6.8 °F -0.1 °F -0.4 °F 72% 30.05 in 10.0 mi West 3.5 mph - N/A   Overcast